Regional Weather Roundup
Issued by NWS Cleveland, OH

Home | Current Version | Previous Version | Text Only | Print | Product List | Glossary Off
Versions: 1 2 3 4 5 6 7 8 9 10 11 12 13 14 15 16 17 18 19 20 21 22 23 24 25 26 27 28 29 30 31 32 33 34 35 36 37 38 39 40 41 42 43 44 45 46 47 48 49 50

675
ASUS41 KCLE 300910
RWRCLE
OHIO REGIONAL WEATHER ROUNDUP
NATIONAL WEATHER SERVICE CLEVELAND, OH
500 AM EDT TUE MAY 30 2017

NOTE: "FAIR" INDICATES FEW OR NO CLOUDS BELOW 12,000 FEET WITH NO
SIGNIFICANT WEATHER AND/OR OBSTRUCTIONS TO VISIBILITY.

OHZ001>008-015>018-024>027-034-035-043-044-301000-
   NORTHWEST OHIO

CITY           SKY/WX    TMP DP  RH WIND       PRES   REMARKS
DEFIANCE       PTCLDY    53  51  93 S3        29.91S
FINDLAY        MOCLDY    60  53  77 S3        29.91S
TOLEDO EXPRESS CLOUDY    56  55  97 CALM      29.90S
TOLEDO EXEC    MOCLDY    60  56  86 S3        29.91S
LIMA           PTCLDY    58  55  90 S8        29.93S
$$

OHZ009>014-019>023-028>033-038-089-301000-
   NORTHEAST OHIO

CITY           SKY/WX    TMP DP  RH WIND       PRES   REMARKS
CLE-HOPKINS    CLOUDY    63  56  78 SW6       29.94S
CLE-LAKEFRONT  CLOUDY    63  54  72 S8        29.92R
CUY CO. ARPT   NOT AVBL
LORAIN-ELYRIA  LGT RAIN  61  52  72 W8        29.94R
ASHTABULA      CLOUDY    61  55  81 SW7       29.95R
AKRON-CANTON   CLOUDY    60  55  83 S6        29.94F
WOOSTER        CLOUDY    59  55  87 SW7       29.94R
MANSFIELD      CLOUDY    58  57  97 SW5       29.95S
YOUNGSTOWN     LGT RAIN  58  56  93 SW5       29.95R
$$

OHZ042-051>053-060>062-070>072-077>081-301000-
  SOUTHWEST OHIO

CITY           SKY/WX    TMP DP  RH WIND       PRES   REMARKS
CINC-COVINGTON PTCLDY    62  56  80 W7        29.98R
CINC-LUNKEN    CLEAR     60  59  96 CALM      29.98R
HAMILTON       CLEAR     57  55  93 CALM      29.98R
DAYTON         MOCLDY    57  54  89 W6        29.97R
WRIGHT-PAT AFB CLEAR     60  57  91 CALM      29.96R
DAYTON GENERAL CLEAR     60  54  80 CALM      29.96S
WILMINGTON     CLEAR     59  58  96 W3        29.96R
$$

OHZ036-037-039>041-045>050-054>059-063>069-073>076-082>088-301000-
  CENTRAL AND SOUTHEAST OHIO

CITY           SKY/WX    TMP DP  RH WIND       PRES   REMARKS
COLUMBUS       PTCLDY    62  56  80 CALM      29.94S
OSU AIRPORT    CLEAR     57  57 100 W5        29.95R
BOLTON FIELD   CLEAR     58  56  93 CALM      29.96R
RICKENBACK AFB CLEAR     60  57  92 S3        29.94S
NEWARK         PTCLDY    57  54  89 CALM      29.94F
MARION         CLOUDY    60  55  83 SW5       29.95R
LANCASTER      PTCLDY    61  56  83 S5        29.95F
ZANESVILLE     PTCLDY    59  56  89 SE3       29.96F
NEW PHILLY     NOT AVBL
$$




USA.gov is the U.S. government's official web portal to all federal, state and local government web resources and services.